Mackinac Island, MI

10:32 AM EDT on June 22, 2017 (GMT -0400)
Mackinac Island

Weather History for KMCD - September, 2013

Change the Weather History Date:

Monday, September 23, 2013

  Actual Average Record
Temperature  
Mean Temperature 48 °F -  
Max Temperature 56 °F 61 °F 78 °F (1985)
Min Temperature 40 °F 48 °F 29 °F (1974)
Degree Days  
Heating Degree Days 17    
Moisture  
Dew Point 43 °F    
Average Humidity 81    
Maximum Humidity 99    
Minimum Humidity 52    
Precipitation  
Precipitation 0.00 in - - ()
Sea Level Pressure  
Sea Level Pressure 30.16 in    
Wind  
Wind Speed 5 mph (ENE)    
Max Wind Speed 10 mph    
Max Gust Speed -    
Visibility 10 miles    
Events      
Averages and records for this station are not official NWS values.
T = Trace of Precipitation, MM = Missing Value Source: NWS Daily Summary

Daily Weather History Graph

Daily Weather History Graph

Search for Another Location

Airport or City:

Trip Planner

Search our weather history database for the weather conditions in past years. The results will help you decide how hot, cold, wet, or windy it might be!

Date:

Astronomy

Sep. 23, 2013 Rise Set
Actual Time 7:27 AM EDT 7:33 PM EDT
Civil Twilight 6:57 AM EDT 8:03 PM EDT
Nautical Twilight 6:22 AM EDT 8:38 PM EDT
Astronomical Twilight 5:46 AM EDT 9:13 PM EDT
Moon 9:50 PM EDT (9/23) 12:00 PM EDT (9/23)
Length of Visible Light 13h 06m
Length of Day
12h 06m
Waning Gibbous, 81% of the Moon is Illuminated
Sep 23
Waning Gibbous
Sep 26
Last Quarter
Oct 4
New
Oct 11
First Quarter
Oct 18
Full

Hourly Weather History & Observations

Time (EDT) Temp. Windchill Dew Point Humidity Pressure Visibility Wind Dir Wind Speed Gust Speed Precip Events Conditions
12:17 AM 41.4 °F 38.4 °F 39.6 °F 93% 30.11 in 10.0 mi North 4.6 mph - N/A   Clear
12:37 AM 40.6 °F 36.7 °F 39.6 °F 96% 30.11 in 10.0 mi North 5.8 mph - N/A   Clear
12:56 AM 40.5 °F 37.3 °F 39.7 °F 97% 30.11 in 10.0 mi North 4.6 mph - N/A   Clear
1:17 AM 40.6 °F 38.6 °F 39.7 °F 97% 30.11 in 10.0 mi North 3.5 mph - N/A   Clear
1:37 AM 40.5 °F 37.3 °F 39.4 °F 96% 30.11 in 10.0 mi North 4.6 mph - N/A   Clear
1:56 AM 40.3 °F 37.1 °F 39.4 °F 97% 30.11 in 10.0 mi North 4.6 mph - N/A   Clear
2:17 AM 40.1 °F 36.1 °F 39.6 °F 98% 30.12 in 10.0 mi North 5.8 mph - N/A   Clear
2:37 AM 40.5 °F 37.3 °F 40.1 °F 99% 30.13 in 10.0 mi North 4.6 mph - N/A   Clear
2:56 AM 40.6 °F 37.5 °F 40.1 °F 98% 30.13 in 10.0 mi North 4.6 mph - N/A   Clear
3:17 AM 40.5 °F 38.4 °F 40.1 °F 99% 30.13 in 10.0 mi North 3.5 mph - N/A   Clear
3:37 AM 40.5 °F 38.4 °F 39.9 °F 98% 30.14 in 10.0 mi North 3.5 mph - N/A   Clear
3:56 AM 40.5 °F 38.4 °F 40.1 °F 99% 30.13 in 10.0 mi North 3.5 mph - N/A   Clear
4:17 AM 40.6 °F 38.6 °F 40.3 °F 99% 30.14 in 10.0 mi North 3.5 mph - N/A   Clear
4:37 AM 40.6 °F 38.6 °F 40.3 °F 99% 30.14 in 10.0 mi NNE 3.5 mph - N/A   Clear
4:57 AM 40.6 °F 38.6 °F 40.3 °F 99% 30.15 in 10.0 mi NNE 3.5 mph - N/A   Clear
5:17 AM 40.6 °F 37.5 °F 40.3 °F 99% 30.15 in 10.0 mi NNE 4.6 mph - N/A   Clear
5:36 AM 41.0 °F 38.0 °F 40.5 °F 98% 30.15 in 4.0 mi NNE 4.6 mph - N/A   Clear
5:57 AM 41.4 °F 37.6 °F 41.2 °F 99% 30.15 in 7.0 mi NNE 5.8 mph - N/A   Clear
6:17 AM 41.5 °F 38.6 °F 41.4 °F 99% 30.16 in 10.0 mi NE 4.6 mph - N/A   Clear
6:36 AM 40.8 °F 37.8 °F 40.6 °F 99% 30.16 in 7.0 mi NE 4.6 mph - N/A   Clear
6:57 AM 41.0 °F 39.0 °F 40.8 °F 99% 30.17 in 7.0 mi NNE 3.5 mph - N/A   Clear
7:17 AM 41.0 °F 39.0 °F 40.6 °F 99% 30.17 in 10.0 mi ENE 3.5 mph - N/A   Clear
7:37 AM 40.6 °F 38.6 °F 40.5 °F 99% 30.17 in 10.0 mi ENE 3.5 mph - N/A   Clear
7:57 AM 41.4 °F 39.4 °F 41.2 °F 99% 30.18 in 10.0 mi ENE 3.5 mph - N/A   Clear
8:17 AM 41.9 °F 40.0 °F 41.7 °F 99% 30.19 in 10.0 mi East 3.5 mph - N/A   Clear
8:37 AM 44.1 °F - 43.9 °F 99% 30.19 in 10.0 mi Calm Calm - N/A   Clear
8:57 AM 47.5 °F - 47.1 °F 99% 30.19 in 10.0 mi Calm Calm - N/A   Clear
9:17 AM 49.3 °F - 46.6 °F 90% 30.19 in 10.0 mi Calm Calm - N/A   Clear
9:37 AM 50.0 °F - 45.3 °F 84% 30.20 in 10.0 mi Calm Calm - N/A   Clear
9:57 AM 50.5 °F - 45.0 °F 81% 30.20 in 10.0 mi Calm Calm - N/A   Clear
10:17 AM 51.4 °F - 44.8 °F 78% 30.20 in 10.0 mi South 5.8 mph - N/A   Clear
10:37 AM 51.1 °F - 45.1 °F 80% 30.20 in 10.0 mi SSE 3.5 mph - N/A   Scattered Clouds
10:57 AM 52.0 °F - 44.6 °F 76% 30.20 in 10.0 mi South 4.6 mph - N/A   Scattered Clouds
11:16 AM 52.3 °F - 42.4 °F 69% 30.21 in 10.0 mi South 3.5 mph - N/A   Clear
11:37 AM 52.9 °F - 40.1 °F 62% 30.21 in 10.0 mi South 3.5 mph - N/A   Clear
11:57 AM 53.1 °F - 38.5 °F 58% 30.21 in 10.0 mi South 4.6 mph - N/A   Clear
12:16 PM 53.6 °F - 38.3 °F 56% 30.21 in 10.0 mi South 3.5 mph - N/A   Clear
12:37 PM 54.9 °F - 38.8 °F 55% 30.21 in 10.0 mi Calm Calm - N/A   Clear
12:57 PM 54.7 °F - 37.4 °F 52% 30.20 in 10.0 mi Calm Calm - N/A   Clear
1:17 PM 55.0 °F - 40.1 °F 57% 30.20 in 10.0 mi Calm Calm - N/A   Clear
1:37 PM 56.3 °F - 41.5 °F 58% 30.19 in 10.0 mi East 6.9 mph - N/A   Scattered Clouds
1:57 PM 55.0 °F - 41.5 °F 60% 30.19 in 10.0 mi NE 8.1 mph - N/A   Scattered Clouds
2:17 PM 55.4 °F - 41.7 °F 60% 30.19 in 10.0 mi ENE 9.2 mph - N/A   Clear
2:37 PM 55.4 °F - 43.3 °F 64% 30.18 in 10.0 mi ENE 8.1 mph - N/A   Clear
2:57 PM 55.6 °F - 43.5 °F 64% 30.18 in 10.0 mi East 8.1 mph - N/A   Clear
3:17 PM 55.2 °F - 42.3 °F 62% 30.17 in 10.0 mi ENE 9.2 mph - N/A   Clear
3:37 PM 55.0 °F - 41.7 °F 61% 30.17 in 10.0 mi ENE 10.4 mph - N/A   Clear
3:57 PM 54.9 °F - 42.4 °F 63% 30.16 in 10.0 mi East 8.1 mph - N/A   Clear
4:17 PM 55.0 °F - 43.2 °F 64% 30.16 in 10.0 mi East 10.4 mph - N/A   Clear
4:37 PM 54.9 °F - 45.0 °F 69% 30.16 in 10.0 mi East 8.1 mph - N/A   Clear
4:57 PM 54.9 °F - 45.7 °F 71% 30.15 in 10.0 mi East 8.1 mph - N/A   Clear
5:17 PM 54.7 °F - 45.0 °F 70% 30.15 in 10.0 mi East 8.1 mph - N/A   Clear
5:37 PM 54.9 °F - 45.5 °F 71% 30.15 in 10.0 mi East 6.9 mph - N/A   Clear
5:57 PM 54.5 °F - 45.5 °F 72% 30.15 in 10.0 mi East 9.2 mph - N/A   Clear
6:17 PM 54.5 °F - 45.9 °F 73% 30.15 in 10.0 mi East 8.1 mph - N/A   Clear
6:37 PM 54.0 °F - 44.6 °F 71% 30.15 in 10.0 mi East 9.2 mph - N/A   Clear
6:57 PM 53.6 °F - 44.4 °F 71% 30.15 in 10.0 mi East 9.2 mph - N/A   Clear
7:17 PM 52.9 °F - 42.1 °F 67% 30.15 in 10.0 mi ESE 6.9 mph - N/A   Clear
7:38 PM 52.3 °F - 43.7 °F 72% 30.15 in 10.0 mi ESE 6.9 mph - N/A   Clear
7:57 PM 51.8 °F - 44.2 °F 75% 30.14 in 10.0 mi ESE 8.1 mph - N/A   Clear
8:17 PM 51.4 °F - 45.0 °F 79% 30.14 in 10.0 mi ESE 8.1 mph - N/A   Clear
8:38 PM 51.1 °F - 45.1 °F 80% 30.14 in 10.0 mi ESE 8.1 mph - N/A   Clear
8:57 PM 51.1 °F - 45.5 °F 81% 30.14 in 10.0 mi ESE 8.1 mph - N/A   Clear
9:17 PM 51.4 °F - 45.5 °F 80% 30.15 in 10.0 mi ESE 6.9 mph - N/A   Clear
9:38 PM 51.8 °F - 45.5 °F 79% 30.14 in 10.0 mi ESE 8.1 mph - N/A   Clear
9:57 PM 51.8 °F - 45.7 °F 80% 30.15 in 10.0 mi ESE 9.2 mph - N/A   Clear
10:17 PM 51.8 °F - 45.5 °F 79% 30.15 in 10.0 mi ESE 10.4 mph - N/A   Clear
10:38 PM 51.8 °F - 46.4 °F 82% 30.15 in 10.0 mi ESE 8.1 mph - N/A   Clear
10:57 PM 51.8 °F - 46.4 °F 82% 30.15 in 10.0 mi ESE 9.2 mph - N/A   Clear
11:17 PM 51.3 °F - 45.7 °F 81% 30.15 in 10.0 mi ESE 8.1 mph - N/A   Clear
11:37 PM 50.9 °F - 45.9 °F 83% 30.15 in 10.0 mi ESE 9.2 mph - N/A   Clear
11:57 PM 50.5 °F - 45.9 °F 84% 30.15 in 10.0 mi ESE 8.1 mph - N/A   Clear